| time (UTC) | temp F | wind direction | speed MPH | gust MPH | rain 1hr in | rain 24hr in | rain mn in | humidity % | barometer mb |
| 20260505225514 | 73 | 196 | 3.0 | 5.0 | 0.00 | 0.00 | 0.00 | 54 | 1009.2 |
| 20260505225010 | 74 | 215 | 2.0 | 3.0 | 0.00 | 0.00 | 0.00 | 53 | 1009.5 |
| 20260505224508 | 74 | 187 | 1.0 | 3.0 | 0.00 | 0.00 | 0.00 | 51 | 1009.4 |
| 20260505224005 | 74 | 273 | 3.0 | 5.0 | 0.00 | 0.00 | 0.00 | 51 | 1009.4 |
| 20260505223502 | 74 | 284 | 1.0 | 4.0 | 0.00 | 0.00 | 0.00 | 51 | 1009.4 |
| 20260505222958 | 74 | 299 | 3.0 | 3.0 | 0.00 | 0.00 | 0.00 | 50 | 1009.5 |
| 20260505222454 | 74 | 83 | 1.0 | 6.0 | 0.00 | 0.00 | 0.00 | 49 | 1009.3 |
| 20260505221950 | 75 | 306 | 5.0 | 6.0 | 0.00 | 0.00 | 0.00 | 47 | 1009.4 |
| 20260505221448 | 75 | 206 | 4.0 | 4.0 | 0.00 | 0.00 | 0.00 | 46 | 1009.1 |
| 20260505220944 | 76 | 5 | 3.0 | 6.0 | 0.00 | 0.00 | 0.00 | 45 | 1009.1 |
| 20260505220441 | 76 | 301 | 3.0 | 6.0 | 0.00 | 0.00 | 0.00 | 44 | 1008.9 |
| 20260505215939 | 77 | 345 | 3.0 | 7.0 | 0.00 | 0.00 | 0.00 | 43 | 1008.9 |
| 20260505215437 | 77 | 237 | 2.0 | 3.0 | 0.00 | 0.00 | 0.00 | 43 | 1008.9 |
| 20260505214935 | 77 | 192 | 1.0 | 4.0 | 0.00 | 0.00 | 0.00 | 41 | 1008.7 |
| 20260505214432 | 78 | 189 | 2.0 | 5.0 | 0.00 | 0.00 | 0.00 | 41 | 1008.8 |
| 20260505213929 | 78 | 219 | 2.0 | 4.0 | 0.00 | 0.00 | 0.00 | 41 | 1008.6 |
| 20260505213427 | 78 | 229 | 0.0 | 3.0 | 0.00 | 0.00 | 0.00 | 41 | 1008.6 |
| 20260505212923 | 78 | 188 | 2.0 | 5.0 | 0.00 | 0.00 | 0.00 | 40 | 1008.3 |
| 20260505212420 | 79 | 207 | 2.0 | 8.0 | 0.00 | 0.00 | 0.00 | 40 | 1008.3 |
| 20260505211916 | 79 | 222 | 3.0 | 9.0 | 0.00 | 0.00 | 0.00 | 40 | 1008.2 |
| 20260505211414 | 79 | 262 | 4.0 | 10.0 | 0.00 | 0.00 | 0.00 | 38 | 1008.2 |
| 20260505210910 | 80 | 216 | 5.0 | 11.0 | 0.00 | 0.00 | 0.00 | 38 | 1008.2 |
| 20260505210408 | 80 | 214 | 2.0 | 6.0 | 0.00 | 0.00 | 0.00 | 38 | 1008.2 |
| 20260505205904 | 81 | 225 | 6.0 | 9.0 | 0.00 | 0.00 | 0.00 | 37 | 1008.1 |
| 20260505205403 | 82 | 203 | 4.0 | 9.0 | 0.00 | 0.00 | 0.00 | 35 | 1008.2 |
| 20260505204859 | 82 | 315 | 1.0 | 11.0 | 0.00 | 0.00 | 0.00 | 39 | 1008.3 |
| 20260505204357 | 80 | 230 | 4.0 | 16.0 | 0.00 | 0.00 | 0.00 | 36 | 1008.4 |
| 20260505203854 | 80 | 200 | 1.0 | 12.0 | 0.00 | 0.00 | 0.00 | 39 | 1008.5 |
| 20260505203350 | 79 | 233 | 4.0 | 10.0 | 0.00 | 0.00 | 0.00 | 37 | 1008.4 |
| 20260505202847 | 79 | 248 | 1.0 | 7.0 | 0.00 | 0.00 | 0.00 | 39 | 1008.6 |
| 20260505202343 | 79 | 204 | 3.0 | 6.0 | 0.00 | 0.00 | 0.00 | 37 | 1008.4 |
| 20260505201840 | 80 | 218 | 6.0 | 15.0 | 0.00 | 0.00 | 0.00 | 35 | 1008.3 |
| 20260505201337 | 80 | 216 | 6.0 | 12.0 | 0.00 | 0.00 | 0.00 | 36 | 1008.6 |
| 20260505200835 | 80 | 213 | 5.0 | 15.0 | 0.00 | 0.00 | 0.00 | 36 | 1008.2 |
| 20260505200332 | 80 | 217 | 11.0 | 13.0 | 0.00 | 0.00 | 0.00 | 34 | 1008.4 |
| 20260505195828 | 80 | 205 | 13.0 | 19.0 | 0.00 | 0.00 | 0.00 | 35 | 1008.5 |
| 20260505195325 | 80 | 213 | 11.0 | 15.0 | 0.00 | 0.00 | 0.00 | 35 | 1008.5 |
| 20260505194822 | 80 | 214 | 10.0 | 17.0 | 0.00 | 0.00 | 0.00 | 35 | 1008.5 |
| 20260505194319 | 81 | 219 | 14.0 | 17.0 | 0.00 | 0.00 | 0.00 | 35 | 1008.5 |
| 20260505193814 | 81 | 221 | 9.0 | 20.0 | 0.00 | 0.00 | 0.00 | 34 | 1008.3 |
| 20260505193312 | 81 | 209 | 7.0 | 13.0 | 0.00 | 0.00 | 0.00 | 36 | 1008.4 |
| 20260505192810 | 80 | 215 | 13.0 | 19.0 | 0.00 | 0.00 | 0.00 | 36 | 1008.5 |
| 20260505192310 | 80 | 207 | 16.0 | 28.0 | 0.00 | 0.00 | 0.00 | 36 | 1008.3 |
| 20260505191806 | 81 | 195 | 13.0 | 23.0 | 0.00 | 0.00 | 0.00 | 36 | 1008.4 |
| 20260505191304 | 82 | 209 | 13.0 | 26.0 | 0.00 | 0.00 | 0.00 | 35 | 1008.2 |
| 20260505190800 | 82 | 215 | 15.0 | 16.0 | 0.00 | 0.00 | 0.00 | 37 | 1008.1 |
| 20260505190255 | 82 | 225 | 14.0 | 20.0 | 0.00 | 0.00 | 0.00 | 37 | 1008.6 |
| 20260505185752 | 82 | 213 | 17.0 | 19.0 | 0.00 | 0.00 | 0.00 | 36 | 1008.3 |
| 20260505185248 | 83 | 227 | 22.0 | 29.0 | 0.00 | 0.00 | 0.00 | 34 | 1008.6 |
| 20260505184744 | 81 | 229 | 12.0 | 23.0 | 0.00 | 0.00 | 0.00 | 36 | 1008.7 |
| 20260505184242 | 83 | 204 | 10.0 | 21.0 | 0.00 | 0.00 | 0.00 | 37 | 1008.8 |
| 20260505183738 | 82 | 212 | 9.0 | 19.0 | 0.00 | 0.00 | 0.00 | 38 | 1008.8 |
| 20260505183236 | 82 | 167 | 9.0 | 17.0 | 0.00 | 0.00 | 0.00 | 39 | 1008.8 |
| 20260505182732 | 83 | 193 | 8.0 | 13.0 | 0.00 | 0.00 | 0.00 | 40 | 1008.9 |
| 20260505182229 | 81 | 202 | 14.0 | 18.0 | 0.00 | 0.00 | 0.00 | 38 | 1009.1 |
| 20260505181725 | 82 | 205 | 6.0 | 21.0 | 0.00 | 0.00 | 0.00 | 40 | 1009.4 |
| 20260505181223 | 80 | 212 | 8.0 | 17.0 | 0.00 | 0.00 | 0.00 | 41 | 1009.4 |
| 20260505180719 | 81 | 199 | 10.0 | 21.0 | 0.00 | 0.00 | 0.00 | 39 | 1009.5 |
| 20260505180216 | 81 | 207 | 10.0 | 11.0 | 0.00 | 0.00 | 0.00 | 39 | 1009.4 |
| 20260505175712 | 81 | 168 | 5.0 | 14.0 | 0.00 | 0.00 | 0.00 | 39 | 1009.6 |
| 20260505175209 | 80 | 189 | 14.0 | 16.0 | 0.00 | 0.00 | 0.00 | 39 | 1009.8 |
| 20260505174705 | 80 | 191 | 9.0 | 19.0 | 0.00 | 0.00 | 0.00 | 40 | 1009.7 |
| 20260505174202 | 80 | 207 | 5.0 | 12.0 | 0.00 | 0.00 | 0.00 | 41 | 1009.9 |
| 20260505173658 | 79 | 211 | 9.0 | 16.0 | 0.00 | 0.00 | 0.00 | 41 | 1009.8 |
| 20260505173155 | 79 | 200 | 12.0 | 16.0 | 0.00 | 0.00 | 0.00 | 42 | 1009.7 |
| 20260505172652 | 80 | 235 | 11.0 | 15.0 | 0.00 | 0.00 | 0.00 | 41 | 1009.5 |
| 20260505172149 | 79 | 202 | 6.0 | 12.0 | 0.00 | 0.00 | 0.00 | 44 | 1009.8 |
| 20260505171649 | 80 | 235 | 10.0 | 17.0 | 0.00 | 0.00 | 0.00 | 42 | 1009.8 |
| 20260505171146 | 80 | 189 | 5.0 | 17.0 | 0.00 | 0.00 | 0.00 | 42 | 1009.6 |
| 20260505170643 | 80 | 233 | 11.0 | 16.0 | 0.00 | 0.00 | 0.00 | 40 | 1009.8 |
| 20260505170140 | 80 | 216 | 8.0 | 17.0 | 0.00 | 0.00 | 0.00 | 43 | 1009.7 |
| 20260505165640 | 80 | 223 | 13.0 | 15.0 | 0.00 | 0.00 | 0.00 | 41 | 1010.0 |
| 20260505165137 | 80 | 197 | 11.0 | 22.0 | 0.00 | 0.00 | 0.00 | 42 | 1009.9 |
| 20260505164632 | 79 | 200 | 12.0 | 22.0 | 0.00 | 0.00 | 0.00 | 42 | 1010.0 |
| 20260505164130 | 79 | 204 | 14.0 | 20.0 | 0.00 | 0.00 | 0.00 | 41 | 1010.3 |
| 20260505163628 | 79 | 202 | 12.0 | 17.0 | 0.00 | 0.00 | 0.00 | 42 | 1010.2 |
| 20260505163125 | 78 | 215 | 10.0 | 15.0 | 0.00 | 0.00 | 0.00 | 44 | 1010.6 |
| 20260505162623 | 79 | 197 | 16.0 | 19.0 | 0.00 | 0.00 | 0.00 | 43 | 1010.4 |
| 20260505162120 | 78 | 200 | 9.0 | 23.0 | 0.00 | 0.00 | 0.00 | 43 | 1010.6 |
| 20260505161617 | 79 | 244 | 4.0 | 8.0 | 0.00 | 0.00 | 0.00 | 45 | 1010.6 |
| 20260505161114 | 78 | 190 | 7.0 | 20.0 | 0.00 | 0.00 | 0.00 | 43 | 1010.6 |
| 20260505160612 | 78 | 207 | 9.0 | 20.0 | 0.00 | 0.00 | 0.00 | 44 | 1010.7 |
| 20260505160109 | 79 | 182 | 9.0 | 20.0 | 0.00 | 0.00 | 0.00 | 44 | 1010.8 |
| 20260505153049 | 77 | 222 | 11.0 | 13.0 | 0.00 | 0.00 | 0.00 | 46 | 1011.3 |
| 20260505152545 | 76 | 216 | 9.0 | 19.0 | 0.00 | 0.00 | 0.00 | 48 | 1011.0 |
| 20260505152041 | 76 | 213 | 9.0 | 16.0 | 0.00 | 0.00 | 0.00 | 49 | 1011.2 |
| 20260505151536 | 76 | 204 | 9.0 | 12.0 | 0.00 | 0.00 | 0.00 | 49 | 1011.3 |
| 20260505151034 | 76 | 212 | 12.0 | 16.0 | 0.00 | 0.00 | 0.00 | 48 | 1011.2 |
| 20260505150530 | 75 | 245 | 5.0 | 18.0 | 0.00 | 0.00 | 0.00 | 50 | 1011.2 |
| 20260505140455 | 72 | 191 | 6.0 | 13.0 | 0.00 | 0.00 | 0.00 | 55 | 1011.1 |
| 20260505124909 | 68 | 163 | 2.0 | 5.0 | 0.00 | 0.00 | 0.00 | 62 | 1011.6 |
| 20260505124406 | 67 | 163 | 1.0 | 4.0 | 0.00 | 0.00 | 0.00 | 62 | 1011.8 |
| 20260505123902 | 66 | 196 | 4.0 | 9.0 | 0.00 | 0.00 | 0.00 | 63 | 1011.7 |
| 20260505123359 | 65 | 132 | 2.0 | 3.0 | 0.00 | 0.00 | 0.00 | 67 | 1011.9 |
| 20260505122854 | 65 | 177 | 3.0 | 3.0 | 0.00 | 0.00 | 0.00 | 68 | 1011.9 |
| 20260505122352 | 65 | 162 | 1.0 | 2.0 | 0.00 | 0.00 | 0.00 | 68 | 1012.0 |
| 20260505121848 | 65 | 94 | 1.0 | 3.0 | 0.00 | 0.00 | 0.00 | 67 | 1012.0 |
| 20260505121346 | 65 | 153 | 2.0 | 4.0 | 0.00 | 0.00 | 0.00 | 67 | 1011.9 |
| 20260505120842 | 65 | 154 | 2.0 | 3.0 | 0.00 | 0.00 | 0.00 | 66 | 1011.9 |
| 20260505120338 | 64 | 192 | 2.0 | 2.0 | 0.00 | 0.00 | 0.00 | 67 | 1012.0 |
| 20260505115837 | 63 | 122 | 2.0 | 6.0 | 0.00 | 0.00 | 0.00 | 68 | 1012.1 |
| 20260505115334 | 63 | 156 | 0.0 | 3.0 | 0.00 | 0.00 | 0.00 | 69 | 1011.8 |
| 20260505114832 | 63 | 164 | 1.0 | 2.0 | 0.00 | 0.00 | 0.00 | 69 | 1011.8 |
| 20260505114328 | 63 | 132 | 0.0 | 3.0 | 0.00 | 0.00 | 0.00 | 69 | 1011.7 |
| 20260505113825 | 62 | 138 | 2.0 | 3.0 | 0.00 | 0.00 | 0.00 | 70 | 1011.7 |
| 20260505113321 | 61 | 145 | 2.0 | 4.0 | 0.00 | 0.00 | 0.00 | 72 | 1011.6 |
| 20260505112817 | 59 | 168 | 0.0 | 3.0 | 0.00 | 0.00 | 0.00 | 77 | 1011.7 |
| 20260505112314 | 55 | 116 | 2.0 | 2.0 | 0.00 | 0.00 | 0.00 | 85 | 1011.6 |
| 20260505111810 | 55 | 89 | 0.0 | 2.0 | 0.00 | 0.00 | 0.00 | 83 | 1011.7 |
| 20260505111306 | 54 | 97 | 2.0 | 2.0 | 0.00 | 0.00 | 0.00 | 82 | 1011.6 |
| 20260505110802 | 54 | 23 | 0.0 | 1.0 | 0.00 | 0.00 | 0.00 | 82 | 1011.6 |
| 20260505110300 | 54 | 138 | 2.0 | 3.0 | 0.00 | 0.00 | 0.00 | 83 | 1011.4 |
| 20260505101733 | 60 | 95 | 2.0 | 3.0 | 0.00 | 0.00 | 0.00 | 70 | 1011.3 |
| 20260505101229 | 60 | 117 | 2.0 | 4.0 | 0.00 | 0.00 | 0.00 | 70 | 1011.4 |
| 20260505100726 | 60 | 172 | 3.0 | 4.0 | 0.00 | 0.00 | 0.00 | 70 | 1011.2 |
| 20260505100223 | 60 | 184 | 3.0 | 3.0 | 0.00 | 0.00 | 0.00 | 70 | 1011.0 |
| 20260505095723 | 61 | 181 | 4.0 | 6.0 | 0.00 | 0.00 | 0.00 | 69 | 1011.1 |
| 20260505095222 | 60 | 185 | 3.0 | 5.0 | 0.00 | 0.00 | 0.00 | 70 | 1011.3 |
| 20260505094717 | 60 | 158 | 2.0 | 4.0 | 0.00 | 0.00 | 0.00 | 71 | 1011.1 |
| 20260505094214 | 59 | 162 | 2.0 | 3.0 | 0.00 | 0.00 | 0.00 | 72 | 1010.8 |
| 20260505093710 | 59 | 142 | 2.0 | 3.0 | 0.00 | 0.00 | 0.00 | 72 | 1010.9 |
| 20260505093208 | 59 | 161 | 2.0 | 3.0 | 0.00 | 0.00 | 0.00 | 72 | 1010.9 |
| 20260505092704 | 59 | 161 | 2.0 | 3.0 | 0.00 | 0.00 | 0.00 | 71 | 1010.7 |
| 20260505092203 | 59 | 182 | 1.0 | 3.0 | 0.00 | 0.00 | 0.00 | 73 | 1010.7 |
| 20260505091700 | 57 | 0 | 0.0 | 2.0 | 0.00 | 0.00 | 0.00 | 75 | 1010.7 |
| 20260505091158 | 59 | 44 | 0.0 | 1.0 | 0.00 | 0.00 | 0.00 | 73 | 1010.6 |
| 20260505090655 | 59 | 89 | 1.0 | 3.0 | 0.00 | 0.00 | 0.00 | 72 | 1010.6 |
| 20260505090153 | 59 | 131 | 2.0 | 3.0 | 0.00 | 0.00 | 0.00 | 72 | 1010.5 |
| 20260505085650 | 59 | 145 | 2.0 | 2.0 | 0.00 | 0.00 | 0.00 | 72 | 1010.5 |
| 20260505085149 | 59 | 172 | 2.0 | 2.0 | 0.00 | 0.00 | 0.00 | 71 | 1010.7 |
| 20260505084646 | 59 | 146 | 1.0 | 1.0 | 0.00 | 0.00 | 0.00 | 72 | 1010.7 |
| 20260505084144 | 60 | 89 | 1.0 | 2.0 | 0.00 | 0.00 | 0.00 | 68 | 1010.7 |
| 20260505083641 | 61 | 160 | 1.0 | 2.0 | 0.00 | 0.00 | 0.00 | 67 | 1010.9 |
| 20260505083137 | 60 | 156 | 2.0 | 2.0 | 0.00 | 0.00 | 0.00 | 67 | 1010.8 |
| 20260505082633 | 61 | 143 | 2.0 | 3.0 | 0.00 | 0.00 | 0.00 | 67 | 1010.8 |
| 20260505082131 | 61 | 169 | 2.0 | 4.0 | 0.00 | 0.00 | 0.00 | 66 | 1010.6 |
| 20260505081626 | 61 | 161 | 3.0 | 3.0 | 0.00 | 0.00 | 0.00 | 65 | 1010.8 |
| 20260505081125 | 62 | 160 | 3.0 | 4.0 | 0.00 | 0.00 | 0.00 | 64 | 1010.6 |
| 20260505080621 | 62 | 154 | 2.0 | 5.0 | 0.00 | 0.00 | 0.00 | 63 | 1010.6 |
| 20260505080117 | 62 | 177 | 2.0 | 4.0 | 0.00 | 0.00 | 0.00 | 64 | 1010.6 |
| 20260505075613 | 62 | 157 | 2.0 | 3.0 | 0.00 | 0.00 | 0.00 | 64 | 1010.5 |
| 20260505075110 | 62 | 159 | 3.0 | 4.0 | 0.00 | 0.00 | 0.00 | 64 | 1010.5 |
| 20260505074607 | 61 | 132 | 3.0 | 4.0 | 0.00 | 0.00 | 0.00 | 65 | 1010.5 |
| 20260505074104 | 60 | 165 | 2.0 | 3.0 | 0.00 | 0.00 | 0.00 | 67 | 1010.2 |
| 20260505073601 | 59 | 75 | 0.0 | 2.0 | 0.00 | 0.00 | 0.00 | 69 | 1010.4 |
| 20260505073100 | 59 | 137 | 3.0 | 4.0 | 0.00 | 0.00 | 0.00 | 69 | 1010.4 |
| 20260505072555 | 59 | 106 | 2.0 | 2.0 | 0.00 | 0.00 | 0.00 | 70 | 1010.2 |
| 20260505072052 | 57 | 83 | 2.0 | 2.0 | 0.00 | 0.00 | 0.00 | 72 | 1010.2 |
| 20260505071547 | 57 | 72 | 1.0 | 1.0 | 0.00 | 0.00 | 0.00 | 73 | 1010.4 |
| 20260505071046 | 57 | 85 | 2.0 | 3.0 | 0.00 | 0.00 | 0.00 | 74 | 1010.2 |
| 20260505070543 | 54 | 332 | 1.0 | 2.0 | 0.00 | 0.00 | 0.00 | 82 | 1010.3 |
| 20260505070038 | 54 | 37 | 2.0 | 2.0 | 0.00 | 0.00 | 0.00 | 83 | 1010.3 |
| 20260505065535 | 54 | 66 | 0.0 | 2.0 | 0.00 | 0.00 | 0.00 | 82 | 1010.5 |
| 20260505065031 | 55 | 39 | 2.0 | 2.0 | 0.00 | 0.00 | 0.00 | 80 | 1010.4 |
| 20260505064528 | 55 | 55 | 1.0 | 2.0 | 0.00 | 0.00 | 0.00 | 82 | 1010.4 |
| 20260505064027 | 58 | 56 | 1.0 | 2.0 | 0.00 | 0.00 | 0.00 | 74 | 1010.4 |
| 20260505063524 | 60 | 108 | 2.0 | 3.0 | 0.00 | 0.00 | 0.00 | 67 | 1010.4 |
| 20260505063019 | 57 | 149 | 2.0 | 3.0 | 0.00 | 0.00 | 0.00 | 73 | 1010.3 |
| 20260505062516 | 55 | 50 | 0.0 | 2.0 | 0.00 | 0.00 | 0.00 | 83 | 1010.3 |
| 20260505062014 | 57 | 116 | 0.0 | 2.0 | 0.00 | 0.00 | 0.00 | 77 | 1010.4 |
| 20260505061511 | 57 | 124 | 2.0 | 3.0 | 0.00 | 0.00 | 0.00 | 72 | 1010.4 |
| 20260505061009 | 57 | 46 | 0.0 | 1.0 | 0.00 | 0.00 | 0.00 | 75 | 1010.6 |
| 20260505060506 | 57 | 137 | 0.0 | 2.0 | 0.00 | 0.00 | 0.00 | 72 | 1010.6 |
| 20260505060002 | 56 | 79 | 0.0 | 1.0 | 0.00 | 0.00 | 0.00 | 79 | 1010.7 |
| 20260505055458 | 57 | 55 | 0.0 | 1.0 | 0.00 | 0.00 | 0.00 | 76 | 1010.5 |
| 20260505054955 | 59 | 115 | 0.0 | 3.0 | 0.00 | 0.00 | 0.00 | 69 | 1010.7 |
| 20260505054452 | 60 | 165 | 2.0 | 2.0 | 0.00 | 0.00 | 0.00 | 66 | 1010.6 |
| 20260505053950 | 60 | 144 | 0.0 | 2.0 | 0.00 | 0.00 | 0.00 | 67 | 1010.6 |
| 20260505053447 | 59 | 150 | 2.0 | 2.0 | 0.00 | 0.00 | 0.00 | 66 | 1010.7 |
| 20260505052943 | 57 | 149 | 2.0 | 2.0 | 0.00 | 0.00 | 0.00 | 74 | 1010.7 |
| 20260505052441 | 58 | 38 | 0.0 | 2.0 | 0.00 | 0.00 | 0.00 | 73 | 1010.8 |
| 20260505051938 | 60 | 53 | 1.0 | 2.0 | 0.00 | 0.00 | 0.00 | 68 | 1010.6 |
| 20260505051435 | 58 | 132 | 2.0 | 2.0 | 0.00 | 0.00 | 0.00 | 73 | 1010.7 |
| 20260505050933 | 60 | 112 | 2.0 | 3.0 | 0.00 | 0.00 | 0.00 | 65 | 1010.7 |
| 20260505050431 | 58 | 146 | 1.0 | 2.0 | 0.00 | 0.00 | 0.00 | 69 | 1010.8 |
| 20260505041358 | 60 | 140 | 0.0 | 1.0 | 0.00 | 0.00 | 0.00 | 60 | 1010.5 |
| 20260505040855 | 61 | 89 | 0.0 | 1.0 | 0.00 | 0.00 | 0.00 | 60 | 1010.6 |
| 20260505040353 | 61 | 129 | 0.0 | 0.0 | 0.00 | 0.00 | 0.00 | 60 | 1010.6 |
| 20260505035850 | 61 | 124 | 0.0 | 1.0 | 0.00 | 0.00 | 0.00 | 59 | 1010.4 |
| 20260505035345 | 62 | 175 | 1.0 | 2.0 | 0.00 | 0.00 | 0.00 | 58 | 1010.4 |
| 20260505034843 | 62 | 173 | 2.0 | 2.0 | 0.00 | 0.00 | 0.00 | 58 | 1010.4 |
| 20260505034339 | 62 | 132 | 0.0 | 2.0 | 0.00 | 0.00 | 0.00 | 58 | 1010.3 |
| 20260505033837 | 62 | 171 | 1.0 | 2.0 | 0.00 | 0.00 | 0.00 | 57 | 1010.1 |
| 20260505033333 | 63 | 164 | 2.0 | 2.0 | 0.00 | 0.00 | 0.00 | 56 | 1010.2 |
| 20260505032832 | 63 | 159 | 2.0 | 3.0 | 0.00 | 0.00 | 0.00 | 56 | 1010.3 |
| 20260505032328 | 62 | 129 | 1.0 | 2.0 | 0.00 | 0.00 | 0.00 | 58 | 1010.1 |
| 20260505031825 | 61 | 313 | 0.0 | 2.0 | 0.00 | 0.00 | 0.00 | 60 | 1010.2 |
| 20260505031321 | 61 | 70 | 1.0 | 2.0 | 0.00 | 0.00 | 0.00 | 60 | 1010.1 |
| 20260505030819 | 63 | 18 | 1.0 | 2.0 | 0.00 | 0.00 | 0.00 | 56 | 1010.2 |
| 20260505030315 | 64 | 148 | 0.0 | 2.0 | 0.00 | 0.00 | 0.00 | 55 | 1010.1 |
| 20260505025810 | 64 | 145 | 1.0 | 3.0 | 0.00 | 0.00 | 0.00 | 53 | 1010.1 |
| 20260505025308 | 64 | 176 | 2.0 | 2.0 | 0.00 | 0.00 | 0.00 | 54 | 1010.1 |
| 20260505024806 | 65 | 157 | 0.0 | 2.0 | 0.00 | 0.00 | 0.00 | 53 | 1010.2 |
| 20260505024303 | 65 | 187 | 2.0 | 3.0 | 0.00 | 0.00 | 0.00 | 53 | 1010.2 |
| 20260505023801 | 63 | 113 | 0.0 | 0.0 | 0.00 | 0.00 | 0.00 | 56 | 1010.2 |
| 20260505023257 | 64 | 287 | 1.0 | 2.0 | 0.00 | 0.00 | 0.00 | 56 | 1010.3 |
| 20260505022755 | 66 | 203 | 2.0 | 3.0 | 0.00 | 0.00 | 0.00 | 51 | 1010.3 |
| 20260505022252 | 66 | 152 | 2.0 | 2.0 | 0.00 | 0.00 | 0.00 | 51 | 1010.3 |
| 20260505021748 | 66 | 173 | 3.0 | 3.0 | 0.00 | 0.00 | 0.00 | 50 | 1010.5 |
| 20260505021246 | 67 | 217 | 2.0 | 6.0 | 0.00 | 0.00 | 0.00 | 50 | 1010.5 |
| 20260505020741 | 66 | 188 | 3.0 | 5.0 | 0.00 | 0.00 | 0.00 | 50 | 1010.3 |
| 20260505020237 | 64 | 180 | 2.0 | 3.0 | 0.00 | 0.00 | 0.00 | 52 | 1010.4 |
| 20260505015734 | 64 | 173 | 0.0 | 2.0 | 0.00 | 0.00 | 0.00 | 54 | 1010.4 |
| 20260505015231 | 64 | 269 | 0.0 | 0.0 | 0.00 | 0.00 | 0.00 | 55 | 1010.4 |
| 20260505014728 | 65 | 126 | 0.0 | 3.0 | 0.00 | 0.00 | 0.00 | 53 | 1010.4 |
| 20260505014225 | 65 | 135 | 0.0 | 1.0 | 0.00 | 0.00 | 0.00 | 53 | 1010.5 |
| 20260505013722 | 67 | 188 | 2.0 | 4.0 | 0.00 | 0.00 | 0.00 | 51 | 1010.3 |
| 20260505013219 | 67 | 191 | 3.0 | 4.0 | 0.00 | 0.00 | 0.00 | 49 | 1010.3 |
| 20260505012717 | 67 | 184 | 2.0 | 4.0 | 0.00 | 0.00 | 0.00 | 50 | 1010.3 |
| 20260505012214 | 68 | 193 | 3.0 | 6.0 | 0.00 | 0.00 | 0.00 | 48 | 1010.4 |
| 20260505011710 | 68 | 167 | 4.0 | 4.0 | 0.00 | 0.00 | 0.00 | 48 | 1010.2 |
| 20260505011208 | 68 | 193 | 4.0 | 6.0 | 0.00 | 0.00 | 0.00 | 48 | 1010.1 |
| 20260505010702 | 68 | 163 | 3.0 | 5.0 | 0.00 | 0.00 | 0.00 | 48 | 1010.0 |
| 20260505010200 | 68 | 186 | 2.0 | 5.0 | 0.00 | 0.00 | 0.00 | 48 | 1010.0 |
| 20260505005655 | 68 | 146 | 3.0 | 4.0 | 0.00 | 0.00 | 0.00 | 48 | 1009.9 |
| 20260505005153 | 68 | 157 | 4.0 | 5.0 | 0.00 | 0.00 | 0.00 | 47 | 1009.8 |
| 20260505004650 | 69 | 170 | 3.0 | 5.0 | 0.00 | 0.00 | 0.00 | 47 | 1010.0 |
| 20260505004146 | 69 | 180 | 3.0 | 5.0 | 0.00 | 0.00 | 0.00 | 46 | 1009.8 |
| 20260505003644 | 69 | 161 | 3.0 | 4.0 | 0.00 | 0.00 | 0.00 | 46 | 1009.7 |
| 20260505003141 | 69 | 193 | 3.0 | 5.0 | 0.00 | 0.00 | 0.00 | 46 | 1009.8 |
| 20260505002637 | 69 | 164 | 3.0 | 5.0 | 0.00 | 0.00 | 0.00 | 46 | 1009.6 |
| 20260505002135 | 69 | 170 | 3.0 | 5.0 | 0.00 | 0.00 | 0.00 | 46 | 1009.7 |
| 20260505001632 | 70 | 148 | 3.0 | 5.0 | 0.00 | 0.00 | 0.00 | 45 | 1009.6 |
| 20260505001129 | 70 | 190 | 3.0 | 6.0 | 0.00 | 0.00 | 0.00 | 45 | 1009.7 |
| 20260505000626 | 70 | 186 | 4.0 | 7.0 | 0.00 | 0.00 | 0.00 | 44 | 1009.6 |
| 20260505000125 | 71 | 160 | 3.0 | 8.0 | 0.00 | 0.00 | 0.00 | 43 | 1009.5 |
| 20260504235620 | 71 | 176 | 3.0 | 4.0 | 0.00 | 0.00 | 0.00 | 42 | 1009.4 |
| 20260504235117 | 72 | 207 | 13.0 | 13.0 | 0.00 | 0.00 | 0.00 | 41 | 1009.4 |
| 20260504234614 | 72 | 185 | 8.0 | 13.0 | 0.00 | 0.00 | 0.00 | 41 | 1009.4 |
| 20260504234112 | 72 | 193 | 5.0 | 17.0 | 0.00 | 0.00 | 0.00 | 41 | 1009.2 |
| 20260504233607 | 72 | 190 | 7.0 | 13.0 | 0.00 | 0.00 | 0.00 | 40 | 1009.3 |
| 20260504233104 | 73 | 193 | 8.0 | 14.0 | 0.00 | 0.00 | 0.00 | 40 | 1009.3 |
| 20260504232601 | 73 | 189 | 5.0 | 12.0 | 0.00 | 0.00 | 0.00 | 41 | 1009.2 |
| 20260504232058 | 73 | 202 | 15.0 | 17.0 | 0.00 | 0.00 | 0.00 | 39 | 1008.9 |
| 20260504231555 | 73 | 188 | 6.0 | 19.0 | 0.00 | 0.00 | 0.00 | 40 | 1009.2 |
| 20260504231051 | 74 | 195 | 8.0 | 14.0 | 0.00 | 0.00 | 0.00 | 39 | 1009.1 |
| 20260504230547 | 74 | 227 | 5.0 | 13.0 | 0.00 | 0.00 | 0.00 | 40 | 1008.9 |
| 20260504230046 | 73 | 201 | 15.0 | 15.0 | 0.00 | 0.00 | 0.00 | 39 | 1009.1 |